sat.trackr.live / text

‹ back to catalog

STARLINK-6146

NORAD 57124 · 2023-090Z

PAYLOAD ACTIVE UNKNOWN

§ Identity

Operator
Country
US
Launch date
2023-06-23
Launch site
AFETR
Launch vehicle
Mass (kg)
RCS (m²)

Purposes: comms

External: N2YO · Heavens-Above · Gunter

§ Orbital elements

Epoch: 2026-09-20T08:24:36.164448Z

Period
94.27 min
Inclination
43.0006°
Eccentricity
0.0001224
Mean motion
15.27581582 rev/d
Perigee alt
482.2 km
Apogee alt
483.9 km
Semi-major
6,861.2 km
B*
-1.1293e-5
RAAN
262.1764°
Arg perigee
270.4363°
Mean anomaly
89.6348°
Rev number
18,010

§ Raw data

STARLINK-61461 57124U 23090Z   26263.35041857 -.00000573  00000+0 -11293-4 0  99912 57124  43.0006 262.1764 0001224 270.4363  89.6348 15.27581582180108

JSON: /api/v1/satellites/57124 · /tle

For live sub-satellite position, see the globe view (requires WebGL).

§ Visibility from observer

Set your observer location to see the next 7 days of passes ≥ 10°. The values pass through the URL so the page stays shareable.

No JS? Fill the form by hand. The geolocation button needs JavaScript.